Location: Unspecified
(0.0000°N, 0.0000°E)
Time: 01:39:56
(UTC+00:00)

deb Explorer IX - Visible Passes

Search period start: 16 December 2017 00:00
Search period end: 26 December 2017 00:00
Orbit: 542 x 1120 km, 38.8° (Epoch: 14 December)

Date Brightness Start Highest point End Pass type
(mag) Time Alt. Az. Time Alt. Az. Time Alt. Az.
16 Dec ? 04:44:52 10° N 04:47:29 16° NE 04:50:03 10° ENE visible
16 Dec ? 19:12:22 10° W 19:18:22 26° NW 19:23:34 12° N visible
17 Dec ? 04:25:46 14° N 04:27:25 18° NE 04:30:12 10° E visible
17 Dec ? 18:52:11 10° W 18:58:03 25° NW 19:03:50 10° NNE visible
18 Dec ? 04:07:01 19° NNE 04:07:20 19° NE 04:10:21 10° E visible
18 Dec ? 18:32:01 10° W 18:37:44 24° NW 18:43:26 10° NNE visible
19 Dec ? 03:48:15 20° ENE 03:48:15 20° ENE 03:50:27 10° E visible
19 Dec ? 05:30:23 10° WNW 05:34:06 31° SW 05:37:43 10° SSE visible
19 Dec ? 18:11:53 10° W 18:17:25 23° NW 18:23:00 10° N visible
20 Dec ? 03:29:27 16° E 03:29:27 16° E 03:30:33 10° E visible
20 Dec ? 05:10:58 13° W 05:13:59 29° SW 05:17:33 10° SSE visible
21 Dec ? 03:10:38 10° E 03:10:38 10° E 03:10:38 10° E visible
21 Dec ? 04:52:09 20° W 04:53:53 27° SW 04:57:23 10° SSE visible
22 Dec ? 04:33:16 25° SW 04:33:45 25° SW 04:37:13 10° SSE visible
23 Dec ? 04:14:20 23° SSW 04:14:20 23° SSW 04:17:02 10° SSE visible
24 Dec ? 03:55:22 17° S 03:55:22 17° S 03:56:51 10° S visible
25 Dec ? 03:36:19 12° S 03:36:19 12° S 03:36:41 10° S visible
